QPF
0.00 0.00 0.00 0.00 0.02 0.01 0.00 0.00 0.00 0.00 0.00 0.00 0.00 0.00 0.00 0.00 0.00 0.00 0.00 0.00 0.00 0.00 0.00 0.00 0.00 0.00 0.00 0.00 0.00 0.00 0.00 0.00 0.00 0.00 0.00 0.00 0.00 0.00 0.00 0.00 0.00 0.00 0.00
0.00 0.00 0.00 0.01 0.06 0.09 0.02 0.00 0.00 0.00 0.00 0.00 0.00 0.00 0.00 0.00 0.00 0.00 0.00 0.00 0.00 0.00 0.00 0.00 0.00 0.00 0.00 0.00 0.00 0.00 0.00 0.00 0.00 0.00 0.00 0.00 0.00 0.00 0.00 0.00 0.00 0.00 0.00
0.00 0.01 0.03 0.04 0.07 0.10 0.04 0.00 0.00 0.00 0.00 0.00 0.00 0.00 0.00 0.00 0.00 0.00 0.00 0.00 0.00 0.00 0.00 0.00 0.00 0.00 0.00 0.00 0.00 0.00 0.00 0.00 0.00 0.00 0.00 0.00 0.00 0.00 0.00 0.00 0.00 0.00 0.00
0.00 0.00 0.02 0.02 0.06 0.09 0.10 0.00 0.00 0.00 0.00 0.00 0.00 0.00 0.00 0.00 0.00 0.00 0.00 0.00 0.00 0.00 0.00 0.00 0.00 0.00 0.00 0.00 0.00 0.00 0.00 0.00 0.00 0.00 0.00 0.00 0.00 0.00 0.00 0.00 0.00 0.00 0.00
0.00 0.00 0.00 0.06 0.07 0.04 0.07 0.02 0.00 0.00 0.00 0.00 0.00 0.00 0.00 0.00 0.00 0.00 0.00 0.00 0.00 0.00 0.00 0.00 0.00 0.00 0.00 0.00 0.00 0.00 0.00 0.00 0.00 0.00 0.00 0.00 0.00 0.00 0.00 0.00 0.00 0.00 0.00
0.00 0.01 0.00 0.04 0.06 0.02 0.02 0.01 0.00 0.00 0.00 0.00 0.00 0.00 0.00 0.00 0.00 0.00 0.00 0.00 0.00 0.00 0.00 0.00 0.00 0.00 0.00 0.00 0.00 0.00 0.00 0.00 0.00 0.00 0.00 0.00 0.00 0.00 0.00 0.00 0.00 0.00 0.00
0.00 0.00 0.00 0.02 0.03 0.04 0.07 0.06 0.02 0.00 0.00 0.00 0.00 0.00 0.00 0.00 0.00 0.00 0.00 0.00 0.00 0.00 0.00 0.00 0.00 0.00 0.00 0.00 0.00 0.00 0.00 0.00 0.00 0.00 0.00 0.00 0.00 0.00 0.00 0.00 0.00 0.00 0.00
0.00 0.00 0.00 0.00 0.06 0.09 0.04 0.07 0.02 0.00 0.00 0.00 0.00 0.00 0.00 0.00 0.00 0.00 0.00 0.00 0.00 0.00 0.00 0.00 0.00 0.00 0.00 0.00 0.00 0.00 0.00 0.00 0.00 0.00 0.00 0.00 0.00 0.00 0.00 0.00 0.00 0.00 0.00
0.01 0.00 0.00 0.00 0.01 0.03 0.10 0.19 0.11 0.04 0.02 0.00 0.00 0.00 0.00 0.00 0.00 0.00 0.00 0.00 0.00 0.00 0.00 0.00 0.00 0.00 0.00 0.00 0.00 0.00 0.00 0.00 0.00 0.00 0.00 0.00 0.00 0.00 0.00 0.00 0.00 0.00 0.00
0.00 0.00 0.00 0.00 0.00 0.02 0.03 0.07 0.14 0.07 0.01 0.00 0.00 0.00 0.00 0.00 0.00 0.00 0.00 0.00 0.00 0.00 0.00 0.00 0.00 0.00 0.00 0.00 0.00 0.00 0.00 0.00 0.00 0.00 0.00 0.00 0.00 0.00 0.00 0.00 0.00 0.00 0.00
0.01 0.00 0.00 0.00 0.00 0.00 0.00 0.04 0.07 0.06 0.03 0.01 0.00 0.00 0.00 0.00 0.00 0.00 0.00 0.00 0.00 0.00 0.00 0.00 0.00 0.00 0.00 0.00 0.00 0.00 0.00 0.00 0.00 0.00 0.00 0.00 0.00 0.00 0.00 0.00 0.00 0.00 0.00
0.10 0.05 0.00 0.00 0.00 0.01 0.01 0.03 0.03 0.04 0.03 0.02 0.01 0.00 0.00 0.00 0.00 0.00 0.00 0.00 0.00 0.00 0.00 0.00 0.00 0.00 0.00 0.00 0.00 0.00 0.00 0.00 0.00 0.00 0.00 0.00 0.00 0.00 0.00 0.00 0.00 0.00 0.00
0.09 0.13 0.06 0.01 0.00 0.01 0.05 0.07 0.03 0.01 0.01 0.01 0.00 0.00 0.00 0.00 0.00 0.00 0.00 0.00 0.00 0.00 0.00 0.00 0.00 0.00 0.00 0.00 0.00 0.00 0.00 0.00 0.00 0.00 0.00 0.00 0.00 0.00 0.00 0.00 0.00 0.00 0.00
0.13 0.17 0.25 0.16 0.08 0.07 0.08 0.05 0.05 0.05 0.02 0.01 0.00 0.00 0.00 0.00 0.00 0.00 0.00 0.00 0.00 0.00 0.00 0.00 0.00 0.00 0.00 0.00 0.00 0.00 0.00 0.00 0.00 0.00 0.00 0.00 0.00 0.00 0.00 0.00 0.00 0.00 0.01
0.23 0.28 0.27 0.24 0.19 0.12 0.10 0.10 0.06 0.04 0.03 0.01 0.01 0.00 0.00 0.00 0.00 0.00 0.00 0.00 0.00 0.00 0.00 0.00 0.00 0.00 0.00 0.00 0.00 0.00 0.00 0.00 0.00 0.00 0.00 0.00 0.00 0.00 0.00 0.01 0.01 0.01 0.01
0.23 0.34 0.28 0.27 0.29 0.23 0.19 0.13 0.07 0.02 0.02 0.01 0.01 0.00 0.00 0.00 0.00 0.00 0.00 0.00 0.00 0.00 0.00 0.00 0.00 0.00 0.00 0.00 0.00 0.00 0.00 0.00 0.01 0.01 0.00 0.00 0.00 0.02 0.04 0.05 0.02 0.00 0.00
0.05 0.26 0.57 0.49 0.27 0.22 0.15 0.17 0.17 0.12 0.05 0.02 0.00 0.00 0.00 0.00 0.00 0.00 0.00 0.00 0.00 0.00 0.00 0.00 0.00 0.00 0.00 0.00 0.00 0.00 0.00 0.00 0.00 0.00 0.00 0.01 0.03 0.03 0.03 0.02 0.00 0.00 0.00
0.05 0.08 0.19 0.51 0.92 0.67 0.33 0.15 0.11 0.12 0.13 0.10 0.04 0.02 0.01 0.01 0.00 0.00 0.00 0.00 0.00 0.00 0.00 0.00 0.00 0.00 0.00 0.00 0.00 0.00 0.00 0.00 0.00 0.00 0.00 0.00 0.00 0.04 0.04 0.02 0.00 0.00 0.00
0.03 0.03 0.06 0.07 0.17 0.51 1.09 0.81 0.31 0.21 0.14 0.09 0.07 0.05 0.03 0.03 0.02 0.02 0.01 0.00 0.00 0.00 0.00 0.00 0.00 0.00 0.00 0.00 0.00 0.00 0.00 0.00 0.00 0.01 0.03 0.03 0.05 0.08 0.06 0.04 0.04 0.02 0.00
0.01 0.01 0.01 0.07 0.08 0.04 0.09 0.40 0.73 0.75 0.57 0.34 0.17 0.07 0.05 0.04 0.03 0.02 0.02 0.01 0.01 0.01 0.01 0.00 0.00 0.01 0.00 0.00 0.00 0.00 0.01 0.00 0.00 0.01 0.04 0.11 0.11 0.09 0.07 0.05 0.04 0.03 0.02
0.00 0.00 0.00 0.00 0.01 0.05 0.07 0.07 0.12 0.23 0.33 0.35 0.25 0.15 0.06 0.03 0.04 0.05 0.06 0.05 0.03 0.02 0.03 0.02 0.02 0.02 0.01 0.01 0.01 0.00 0.00 0.01 0.03 0.05 0.09 0.14 0.18 0.18 0.13 0.08 0.06 0.04 0.03
0.00 0.00 0.00 0.00 0.00 0.00 0.00 0.01 0.02 0.13 0.31 0.28 0.17 0.15 0.22 0.27 0.36 0.33 0.23 0.16 0.12 0.09 0.10 0.09 0.06 0.05 0.02 0.03 0.05 0.07 0.16 0.30 0.37 0.31 0.28 0.27 0.25 0.20 0.09 0.05 0.07 0.08 0.07
0.00 0.00 0.00 0.00 0.00 0.00 0.00 0.00 0.00 0.01 0.04 0.16 0.17 0.14 0.11 0.11 0.13 0.23 0.33 0.27 0.20 0.17 0.13 0.15 0.17 0.24 0.23 0.26 0.35 0.47 0.48 0.39 0.26 0.16 0.16 0.17 0.11 0.11 0.06 0.05 0.14 0.10 0.10
0.00 0.00 0.00 0.00 0.00 0.00 0.00 0.00 0.00 0.00 0.00 0.00 0.01 0.05 0.09 0.07 0.07 0.10 0.26 0.31 0.23 0.21 0.23 0.29 0.25 0.17 0.18 0.32 0.45 0.41 0.34 0.27 0.18 0.12 0.09 0.06 0.03 0.03 0.03 0.04 0.16 0.11 0.10
0.00 0.00 0.00 0.00 0.00 0.00 0.00 0.00 0.00 0.00 0.00 0.00 0.00 0.00 0.02 0.04 0.08 0.08 0.08 0.15 0.25 0.30 0.33 0.36 0.44 0.43 0.31 0.20 0.21 0.27 0.26 0.16 0.17 0.15 0.09 0.05 0.06 0.05 0.06 0.07 0.08 0.14 0.10
0.00 0.00 0.00 0.00 0.00 0.00 0.00 0.00 0.00 0.00 0.00 0.00 0.00 0.00 0.01 0.01 0.02 0.02 0.02 0.02 0.01 0.01 0.04 0.10 0.15 0.15 0.11 0.10 0.11 0.08 0.09 0.09 0.09 0.07 0.06 0.06 0.07 0.06 0.05 0.05 0.05 0.08 0.10
MSLP
1013.13 1013.78 1014.32 1014.67 1015.49 1016.29 1016.83 1017.52 1018.23 1018.79 1019.20 1019.42 1019.76 1020.16 1020.74 1021.15 1021.43 1021.75 1022.01 1022.26 1022.58 1022.90 1023.17 1023.50 1023.84 1024.14 1024.40 1024.64 1024.82 1025.09 1025.25 1025.51 1025.72 1025.96 1026.16 1026.32 1026.51 1026.71 1026.87 1027.06 1027.21 1027.34 1027.52
1012.52 1013.47 1014.21 1014.73 1015.39 1016.06 1016.88 1017.26 1017.88 1018.71 1019.31 1019.50 1019.93 1020.20 1020.62 1021.13 1021.47 1021.81 1022.06 1022.38 1022.69 1023.03 1023.33 1023.70 1023.94 1024.22 1024.61 1024.88 1025.06 1025.32 1025.56 1025.74 1026.06 1026.31 1026.54 1026.69 1026.97 1027.24 1027.37 1027.55 1027.67 1027.74 1027.99
1012.04 1013.04 1013.93 1014.66 1014.93 1015.76 1016.69 1017.50 1018.08 1018.71 1019.43 1019.61 1020.10 1020.39 1020.71 1021.10 1021.48 1021.83 1022.16 1022.48 1022.77 1023.10 1023.44 1023.73 1024.04 1024.27 1024.55 1024.93 1025.22 1025.50 1025.76 1025.94 1026.17 1026.46 1026.72 1027.02 1027.18 1027.42 1027.64 1027.80 1027.96 1028.07 1028.33
1011.70 1012.48 1013.28 1014.01 1014.67 1015.58 1016.44 1017.30 1017.93 1018.68 1019.41 1019.68 1020.20 1020.60 1020.93 1021.30 1021.63 1021.93 1022.23 1022.44 1022.75 1023.15 1023.48 1023.79 1024.05 1024.37 1024.65 1024.87 1025.17 1025.46 1025.75 1026.06 1026.32 1026.65 1026.92 1027.19 1027.40 1027.62 1027.86 1028.07 1028.23 1028.49 1028.71
1011.10 1011.89 1012.72 1013.71 1014.67 1015.44 1016.12 1016.78 1017.69 1018.23 1019.14 1019.87 1020.29 1020.73 1021.11 1021.37 1021.67 1021.95 1022.33 1022.53 1022.71 1023.01 1023.38 1023.66 1023.94 1024.33 1024.63 1024.84 1025.10 1025.38 1025.73 1026.04 1026.40 1026.76 1027.08 1027.40 1027.56 1027.85 1028.06 1028.24 1028.38 1028.56 1028.86
1010.49 1011.40 1012.37 1013.09 1014.00 1014.89 1015.87 1016.46 1017.18 1017.95 1018.60 1019.42 1020.22 1020.99 1021.36 1021.55 1021.67 1021.89 1022.14 1022.38 1022.70 1022.90 1023.18 1023.46 1023.75 1024.16 1024.51 1024.80 1025.03 1025.28 1025.57 1026.02 1026.34 1026.72 1027.08 1027.36 1027.66 1027.90 1028.12 1028.30 1028.57 1028.84 1029.18
1009.79 1010.72 1011.86 1012.66 1013.47 1014.07 1014.99 1016.05 1017.08 1017.80 1018.66 1019.18 1020.33 1021.57 1021.98 1021.99 1022.00 1022.02 1021.95 1022.11 1022.47 1022.67 1022.94 1023.22 1023.57 1023.99 1024.33 1024.71 1024.94 1025.13 1025.34 1025.73 1026.19 1026.51 1026.90 1027.31 1027.56 1027.83 1028.18 1028.48 1028.72 1028.91 1029.33
1008.76 1009.75 1010.70 1011.60 1012.60 1013.80 1014.61 1015.30 1015.95 1017.23 1018.11 1018.41 1019.20 1020.84 1022.18 1022.54 1022.21 1022.16 1022.17 1022.20 1022.14 1022.23 1022.53 1022.80 1023.21 1023.57 1023.87 1024.22 1024.60 1024.81 1025.05 1025.37 1025.84 1026.24 1026.67 1027.03 1027.39 1027.70 1028.14 1028.52 1028.86 1029.14 1029.39
1007.98 1008.95 1009.95 1010.90 1011.90 1012.71 1013.61 1014.47 1015.26 1015.81 1016.68 1017.84 1017.94 1018.52 1020.89 1021.10 1021.78 1022.13 1022.21 1022.31 1022.34 1022.28 1022.13 1022.30 1022.63 1022.98 1023.36 1023.73 1024.16 1024.48 1024.71 1024.99 1025.35 1025.78 1026.33 1026.86 1027.25 1027.70 1028.07 1028.47 1028.78 1029.19 1029.47
1007.14 1008.15 1009.25 1010.24 1011.15 1011.99 1012.75 1013.31 1014.53 1015.12 1015.78 1016.38 1017.37 1017.12 1017.76 1018.61 1020.34 1021.86 1021.98 1022.04 1022.20 1022.25 1022.20 1022.14 1022.40 1022.62 1022.93 1023.36 1023.75 1024.12 1024.38 1024.78 1024.98 1025.35 1025.87 1026.56 1027.14 1027.62 1028.05 1028.37 1028.76 1029.05 1029.32
1006.59 1007.40 1008.24 1009.31 1010.23 1010.97 1011.88 1012.65 1013.51 1014.30 1014.88 1015.33 1015.36 1016.33 1017.36 1018.06 1018.45 1019.63 1020.93 1021.39 1021.96 1021.68 1021.69 1021.74 1021.89 1022.19 1022.56 1022.93 1023.33 1023.64 1023.99 1024.43 1024.74 1025.04 1025.48 1026.17 1026.86 1027.34 1027.76 1028.18 1028.56 1028.97 1029.37
1005.54 1006.54 1007.32 1008.32 1009.29 1009.98 1010.69 1011.52 1012.31 1013.16 1014.01 1014.65 1015.10 1015.21 1015.47 1016.19 1017.26 1017.91 1019.30 1020.17 1020.28 1020.61 1020.76 1021.16 1021.57 1021.70 1021.95 1022.20 1022.50 1022.88 1023.34 1023.74 1024.23 1024.64 1025.19 1025.69 1026.34 1026.88 1027.35 1027.74 1028.16 1028.53 1028.94
1004.60 1005.43 1006.30 1007.22 1008.04 1008.73 1009.72 1010.82 1011.40 1011.73 1012.43 1013.23 1013.59 1014.02 1014.65 1014.89 1015.57 1016.35 1017.28 1018.72 1019.38 1020.00 1020.24 1020.39 1020.57 1021.07 1021.46 1021.78 1021.91 1022.13 1022.44 1022.86 1023.43 1024.03 1024.60 1025.09 1025.69 1026.41 1027.06 1027.41 1027.78 1027.82 1028.11
1003.89 1004.94 1005.47 1006.25 1007.03 1007.71 1008.60 1009.63 1010.39 1010.87 1011.19 1011.94 1012.42 1013.05 1013.45 1014.09 1014.86 1015.46 1016.23 1017.44 1018.75 1019.41 1019.81 1019.41 1019.69 1020.08 1020.57 1020.91 1021.16 1021.76 1022.00 1022.27 1022.77 1023.37 1023.94 1024.60 1025.33 1025.94 1026.58 1026.85 1027.11 1027.41 1027.75
1002.63 1004.27 1004.98 1005.60 1006.34 1007.03 1007.65 1008.30 1009.00 1009.67 1010.50 1010.95 1011.44 1012.02 1012.68 1013.29 1014.10 1014.73 1015.29 1015.84 1016.71 1018.28 1018.66 1018.66 1018.99 1018.85 1019.38 1019.93 1020.21 1020.83 1021.18 1021.59 1022.20 1022.66 1023.19 1023.83 1024.48 1024.96 1025.31 1025.85 1026.24 1026.82 1027.50
1002.91 1003.47 1004.09 1005.03 1005.51 1006.30 1007.35 1007.99 1008.31 1008.65 1009.32 1009.83 1010.35 1011.00 1011.74 1012.34 1013.05 1013.78 1014.52 1015.06 1015.43 1016.12 1016.92 1017.02 1017.60 1017.75 1018.24 1018.90 1019.28 1019.85 1020.17 1020.78 1021.35 1021.86 1022.29 1022.87 1023.26 1023.83 1024.49 1025.26 1025.93 1026.29 1026.85
1003.15 1003.49 1003.38 1004.25 1004.59 1005.11 1006.37 1007.10 1007.63 1008.05 1008.37 1008.81 1009.30 1009.75 1010.26 1010.83 1011.58 1012.31 1013.04 1013.79 1014.62 1015.14 1015.74 1015.63 1016.17 1016.89 1017.65 1017.89 1018.27 1018.78 1019.30 1019.87 1020.40 1020.72 1021.32 1021.98 1022.63 1023.08 1023.70 1024.41 1025.35 1026.06 1026.66
1003.65 1004.00 1004.68 1003.89 1004.62 1004.89 1005.76 1005.98 1006.72 1007.32 1007.74 1008.15 1008.57 1009.03 1009.40 1009.94 1010.45 1011.19 1011.95 1012.61 1013.26 1013.69 1014.53 1015.03 1015.52 1016.17 1016.40 1016.66 1017.01 1017.82 1018.25 1018.72 1019.15 1019.82 1020.41 1020.99 1021.47 1022.09 1022.63 1023.56 1024.45 1025.34 1026.13
1004.28 1004.56 1004.45 1005.16 1004.39 1004.94 1004.73 1002.60 1005.08 1005.74 1006.01 1006.77 1007.24 1008.05 1008.59 1009.14 1009.73 1010.36 1010.92 1011.49 1012.15 1012.78 1013.41 1013.83 1014.32 1015.31 1015.72 1016.15 1016.81 1017.32 1017.60 1017.97 1018.15 1018.53 1019.48 1020.01 1020.51 1020.89 1021.88 1022.79 1023.51 1024.11 1025.37
1004.65 1004.66 1005.13 1004.96 1005.41 1005.16 1004.99 1004.97 1004.68 1004.37 1005.33 1005.51 1006.02 1007.11 1007.90 1008.43 1008.67 1009.24 1010.02 1010.72 1011.46 1012.13 1012.78 1013.29 1013.81 1014.82 1015.25 1015.85 1016.16 1016.72 1017.07 1017.14 1017.39 1017.82 1018.37 1018.78 1019.57 1020.50 1021.33 1022.04 1022.74 1023.43 1024.19
1005.59 1005.48 1005.39 1005.52 1005.92 1006.90 1005.70 1006.10 1005.31 1004.93 1005.14 1005.24 1006.02 1006.51 1006.70 1007.26 1007.75 1008.35 1009.24 1009.85 1010.49 1010.99 1011.46 1012.10 1012.54 1013.53 1014.55 1015.19 1015.22 1014.94 1015.79 1016.47 1017.03 1017.56 1018.11 1018.54 1018.97 1019.57 1020.52 1021.25 1021.85 1022.44 1023.27
1005.85 1006.09 1006.40 1006.39 1006.58 1006.21 1006.68 1006.96 1006.47 1005.85 1005.57 1005.31 1005.46 1005.81 1006.28 1006.82 1007.37 1007.81 1008.20 1008.64 1009.18 1009.66 1010.05 1010.71 1011.12 1011.45 1012.44 1013.20 1014.07 1014.49 1015.28 1016.23 1017.35 1016.86 1017.09 1017.56 1018.07 1018.68 1018.82 1020.04 1020.69 1021.63 1022.86
1005.59 1005.57 1006.13 1006.30 1006.19 1006.39 1006.54 1006.54 1006.78 1006.59 1005.80 1005.27 1005.21 1005.37 1005.35 1005.38 1006.27 1007.19 1007.17 1007.50 1007.43 1008.48 1008.90 1009.50 1009.87 1009.98 1011.01 1011.93 1012.76 1013.48 1013.95 1014.47 1015.11 1015.85 1016.65 1017.47 1018.04 1017.62 1018.09 1018.91 1019.79 1020.63 1021.52
1006.24 1006.18 1006.39 1006.09 1005.80 1005.77 1005.90 1006.20 1006.38 1006.68 1006.67 1006.02 1005.54 1005.01 1004.73 1005.14 1005.52 1006.03 1006.23 1006.81 1007.13 1007.79 1008.35 1009.13 1009.06 1009.37 1010.08 1010.81 1011.34 1011.29 1012.28 1013.70 1015.26 1015.45 1015.78 1017.37 1017.84 1018.00 1018.56 1018.40 1018.93 1019.80 1020.45
1005.89 1005.99 1006.27 1006.51 1006.37 1006.12 1006.10 1006.05 1006.23 1006.06 1005.86 1005.53 1005.52 1005.07 1004.77 1004.42 1004.48 1004.97 1005.46 1005.91 1006.50 1006.51 1006.60 1007.39 1008.20 1008.69 1009.00 1009.45 1010.56 1012.13 1012.98 1014.16 1015.35 1015.77 1015.61 1016.67 1017.93 1018.71 1019.30 1019.10 1018.90 1019.50 1020.49
1005.98 1005.74 1006.09 1006.38 1006.40 1006.47 1006.37 1006.25 1006.30 1006.13 1006.16 1006.15 1005.72 1004.99 1004.47 1004.54 1004.21 1004.15 1004.72 1004.87 1005.48 1006.14 1006.86 1007.24 1007.35 1008.00 1008.35 1008.83 1009.66 1010.26 1011.71 1012.84 1014.30 1015.65 1015.98 1016.54 1017.90 1018.23 1019.64 1019.89 1019.52 1019.62 1020.58
Thickness
5709 5704 5701 5702 5696 5692 5691 5688 5684 5682 5683 5683 5680 5676 5675 5674 5673 5671 5670 5668 5665 5663 5662 5661 5659 5658 5658 5657 5656 5654 5652 5650 5648 5646 5644 5643 5641 5639 5638 5636 5634 5632 5630
5707 5702 5698 5695 5690 5689 5685 5685 5683 5679 5678 5678 5676 5673 5672 5670 5669 5668 5667 5665 5663 5661 5659 5657 5656 5656 5654 5653 5652 5650 5648 5647 5644 5642 5641 5639 5637 5635 5633 5631 5629 5628 5626
5705 5697 5693 5690 5690 5685 5680 5678 5677 5674 5674 5673 5672 5669 5667 5665 5665 5664 5663 5662 5660 5658 5656 5655 5653 5652 5652 5650 5649 5647 5645 5643 5642 5640 5638 5635 5634 5632 5630 5627 5625 5623 5621
5700 5696 5693 5689 5686 5681 5677 5674 5674 5670 5669 5669 5666 5665 5662 5660 5659 5660 5659 5659 5658 5656 5653 5652 5651 5649 5648 5647 5646 5644 5642 5640 5639 5636 5634 5631 5630 5627 5625 5623 5621 5618 5615
5699 5695 5692 5684 5680 5676 5675 5673 5671 5670 5665 5663 5661 5660 5658 5656 5655 5655 5655 5655 5655 5654 5652 5650 5648 5645 5644 5644 5643 5641 5640 5638 5635 5632 5630 5627 5626 5623 5621 5619 5617 5615 5612
5698 5694 5689 5685 5679 5675 5672 5671 5670 5667 5663 5662 5658 5652 5651 5652 5652 5652 5653 5652 5651 5650 5649 5648 5646 5644 5642 5641 5640 5639 5637 5634 5632 5630 5627 5624 5622 5619 5617 5615 5613 5610 5606
5697 5693 5687 5683 5678 5677 5674 5668 5663 5661 5656 5657 5651 5642 5641 5644 5646 5647 5649 5650 5649 5648 5647 5646 5645 5643 5641 5639 5637 5637 5635 5632 5630 5627 5625 5622 5619 5616 5613 5610 5608 5606 5602
5700 5695 5691 5686 5680 5673 5670 5668 5667 5659 5654 5657 5655 5641 5633 5636 5641 5642 5643 5645 5646 5647 5646 5645 5644 5643 5641 5640 5637 5635 5633 5631 5628 5626 5622 5619 5617 5613 5610 5606 5603 5600 5597
5699 5696 5691 5686 5680 5676 5672 5668 5665 5665 5660 5654 5658 5654 5633 5643 5636 5636 5638 5638 5640 5642 5644 5645 5644 5643 5641 5640 5637 5634 5632 5630 5628 5625 5621 5617 5613 5609 5605 5602 5598 5595 5592
5700 5696 5689 5684 5679 5675 5672 5672 5664 5662 5659 5657 5652 5661 5660 5656 5645 5637 5635 5636 5635 5638 5640 5641 5640 5640 5640 5638 5636 5633 5632 5629 5627 5623 5619 5614 5609 5605 5601 5597 5593 5590 5585
5695 5693 5690 5684 5679 5676 5672 5669 5665 5662 5659 5659 5665 5660 5652 5651 5652 5646 5641 5639 5633 5638 5638 5638 5638 5639 5638 5637 5634 5633 5630 5627 5624 5621 5617 5611 5605 5602 5598 5594 5589 5585 5580
5690 5688 5687 5683 5678 5676 5673 5670 5667 5663 5659 5656 5656 5661 5663 5661 5654 5652 5642 5640 5644 5640 5639 5638 5637 5638 5638 5638 5635 5632 5629 5626 5622 5618 5613 5608 5603 5599 5595 5591 5586 5581 5576
5686 5685 5686 5683 5680 5679 5674 5666 5665 5666 5665 5660 5661 5662 5660 5664 5660 5659 5653 5642 5641 5637 5636 5639 5639 5635 5634 5633 5632 5630 5629 5627 5622 5617 5611 5606 5601 5594 5589 5584 5579 5577 5573
5681 5679 5681 5680 5679 5678 5671 5666 5662 5662 5665 5662 5661 5659 5661 5659 5655 5655 5651 5640 5633 5630 5629 5639 5638 5637 5634 5631 5629 5623 5623 5623 5620 5615 5609 5603 5595 5590 5583 5580 5578 5573 5567
5680 5672 5669 5670 5671 5670 5668 5666 5664 5661 5657 5658 5659 5657 5655 5655 5651 5650 5648 5646 5641 5628 5634 5635 5634 5638 5635 5630 5629 5623 5620 5618 5613 5611 5606 5599 5594 5589 5585 5581 5576 5570 5561
5670 5668 5659 5659 5662 5661 5656 5655 5657 5661 5657 5657 5657 5655 5653 5654 5652 5648 5645 5643 5642 5641 5635 5642 5636 5637 5633 5629 5627 5623 5620 5613 5610 5608 5604 5599 5596 5590 5583 5577 5570 5566 5560
5660 5658 5662 5659 5662 5662 5652 5650 5652 5653 5655 5656 5656 5655 5655 5656 5654 5651 5648 5643 5638 5636 5632 5643 5640 5634 5629 5628 5626 5622 5616 5612 5608 5607 5602 5596 5590 5586 5580 5574 5565 5558 5551
5644 5645 5638 5643 5644 5646 5646 5647 5647 5648 5648 5649 5650 5650 5651 5651 5651 5650 5647 5644 5641 5638 5630 5632 5632 5628 5629 5629 5626 5621 5618 5613 5608 5606 5599 5593 5590 5585 5579 5569 5562 5554 5545
5628 5629 5633 5627 5640 5637 5639 5639 5651 5650 5651 5647 5649 5646 5647 5647 5644 5643 5646 5644 5641 5638 5631 5629 5634 5623 5622 5620 5615 5612 5611 5606 5606 5606 5597 5591 5588 5581 5574 5564 5557 5551 5540
5613 5616 5614 5623 5620 5627 5631 5637 5641 5640 5641 5644 5633 5640 5639 5637 5642 5642 5638 5637 5634 5628 5624 5621 5621 5608 5611 5608 5608 5604 5602 5603 5601 5598 5594 5590 5584 5574 5564 5556 5552 5545 5538
5594 5598 5602 5603 5603 5596 5611 5612 5624 5635 5640 5639 5632 5637 5634 5636 5637 5635 5630 5629 5627 5626 5625 5622 5622 5613 5601 5599 5603 5607 5599 5594 5590 5586 5581 5578 5574 5567 5557 5549 5547 5542 5532
5576 5579 5581 5584 5584 5591 5588 5591 5601 5611 5618 5629 5628 5630 5630 5625 5622 5622 5621 5621 5625 5625 5624 5621 5625 5621 5611 5607 5600 5596 5590 5578 5571 5573 5571 5569 5566 5559 5554 5546 5543 5535 5523
5560 5565 5567 5572 5575 5578 5577 5580 5584 5591 5603 5611 5618 5621 5626 5627 5618 5613 5613 5617 5618 5615 5611 5615 5613 5612 5603 5604 5598 5588 5584 5580 5580 5566 5559 5555 5550 5557 5550 5546 5538 5529 5520
5536 5544 5546 5555 5565 5568 5571 5571 5573 5575 5580 5588 5598 5608 5617 5616 5614 5610 5613 5610 5608 5608 5608 5601 5601 5606 5600 5595 5592 5587 5579 5571 5555 5556 5553 5540 5537 5540 5537 5538 5531 5522 5515
5523 5526 5529 5532 5540 5548 5554 5558 5560 5566 5572 5579 5582 5592 5600 5607 5610 5605 5604 5606 5601 5607 5612 5605 5599 5597 5595 5589 5583 5566 5557 5548 5539 5539 5542 5534 5526 5519 5516 5518 5518 5512 5502
5507 5509 5511 5516 5522 5526 5533 5541 5546 5550 5553 5557 5567 5576 5584 5589 5595 5598 5599 5600 5599 5597 5588 5589 5591 5589 5587 5579 5579 5572 5559 5547 5531 5525 5526 5522 5510 5510 5500 5498 5500 5495 5486